Location: Brno
(49.2000°N, 16.6330°E)
Time: 04:22:19
(UTC+01:00)

ISS - Visible Passes

Search period start: 22 March 2023 00:00
Search period end: 01 April 2023 01:00
Orbit: 414 x 423 km, 51.6° (Epoch: 22 March)

Date Brightness Start Highest point End Pass type
(mag) Time Alt. Az. Time Alt. Az. Time Alt. Az.
22 Mar -3.8 18:41:26 10° WSW 18:44:48 89° NNW 18:48:09 10° ENE visible
22 Mar -3.2 20:18:27 10° WNW 20:21:37 53° N 20:21:37 53° N visible
23 Mar -3.3 19:30:33 10° W 19:33:52 55° N 19:35:46 22° ENE visible
23 Mar -1.1 21:07:31 10° WNW 21:08:43 20° WNW 21:08:43 20° WNW visible
24 Mar -3.4 18:42:38 10° W 18:45:57 61° N 18:49:17 10° ENE visible
24 Mar -3.4 20:19:38 10° WNW 20:22:47 60° N 20:22:47 60° N visible
25 Mar -3.3 19:31:44 10° WNW 19:35:02 56° N 19:36:50 24° ENE visible
25 Mar -1.2 21:08:35 10° WNW 21:09:46 20° WNW 21:09:46 20° WNW visible
26 Mar -3.2 19:43:45 10° WNW 19:47:03 53° N 19:50:22 10° E visible
26 Mar -3.7 21:20:39 10° WNW 21:23:46 75° W 21:23:46 75° W visible
27 Mar -3.7 20:32:42 10° WNW 20:36:03 74° NNE 20:37:45 26° E visible
27 Mar -1.1 22:09:39 10° W 22:10:41 17° W 22:10:41 17° W visible
28 Mar -3.1 21:21:33 10° WNW 21:24:40 46° SW 21:24:40 46° SW visible
29 Mar -3.6 20:33:31 10° WNW 20:36:51 66° SSW 20:38:39 24° SE visible
29 Mar -0.8 22:11:11 10° WSW 22:11:35 11° WSW 22:11:35 11° WSW visible
30 Mar -2.0 21:22:38 10° W 21:25:17 22° SW 21:25:34 22° SSW visible
31 Mar -2.4 20:34:20 10° W 20:37:23 32° SSW 20:39:36 15° SSE visible
